Location: Unspecified
(0.0000°N, 0.0000°E)
Time: 13:07:21
(UTC+00:00)

SR - All Passes

Search period start: 07 October 2022 00:00
Search period end: 17 October 2022 00:00
Orbit: 574 x 878 km, 66.7° (Epoch: 06 October)

Date Brightness Start Highest point End Pass type
(mag) Time Alt. Az. Time Alt. Az. Time Alt. Az.
07 Oct - 05:35:11 10° NNE 05:38:52 23° ENE 05:42:21 10° ESE daylight
07 Oct - 07:18:11 10° WNW 07:20:31 14° WSW 07:22:48 10° SW daylight
07 Oct - 17:58:21 10° SSW 18:03:47 70° ESE 18:09:33 10° NNE visible
08 Oct - 06:26:11 10° NW 06:30:27 41° WSW 06:34:31 10° S daylight
08 Oct - 17:09:04 10° SSE 17:13:41 28° ESE 17:18:31 10° NE daylight
08 Oct - 18:51:16 10° WSW 18:55:31 22° WNW 18:59:55 10° NNW visible
09 Oct - 05:35:50 10° N 05:40:21 61° ENE 05:44:36 10° SSE daylight
09 Oct - 16:22:24 10° ESE 16:23:35 11° ESE 16:24:46 10° E daylight
09 Oct - 17:59:55 10° SSW 18:05:17 54° WNW 18:10:57 10° N visible
10 Oct - 04:46:47 10° NNE 04:50:09 20° ENE 04:53:23 10° ESE visible
10 Oct - 06:29:04 10° WNW 06:31:50 16° WSW 06:34:31 10° SSW daylight
10 Oct - 17:09:43 10° S 17:15:08 62° ESE 17:20:52 10° NNE daylight
11 Oct - 05:37:24 10° NW 05:41:46 48° WSW 05:45:54 10° S daylight
11 Oct - 16:20:36 10° SSE 16:25:02 25° ESE 16:29:39 10° NE daylight
11 Oct - 18:02:19 10° WSW 18:06:50 25° WNW 18:11:31 10° NNW visible
12 Oct - 04:47:13 10° N 04:51:39 51° ENE 04:55:49 10° SE visible
12 Oct - 17:11:09 10° SSW 17:16:36 61° WNW 17:22:22 10° N daylight
13 Oct - 03:58:25 10° NNE 04:01:26 17° ENE 04:04:20 10° ESE visible
13 Oct - 05:40:01 10° WNW 05:43:08 19° WSW 05:46:09 10° SSW daylight
13 Oct - 16:21:04 10° S 16:26:27 54° ESE 16:32:07 10° NNE daylight
13 Oct - 18:06:46 10° W 18:08:25 11° WNW 18:10:04 10° NW visible
14 Oct - 04:48:38 10° NNW 04:53:03 57° WSW 04:57:14 10° S visible
14 Oct - 15:32:08 10° SSE 15:36:21 22° ESE 15:40:42 10° ENE daylight
14 Oct - 17:13:23 10° SW 17:18:07 28° WNW 17:23:04 10° NNW daylight
15 Oct - 03:58:36 10° N 04:02:55 44° ENE 04:07:00 10° SE visible
15 Oct - 16:22:23 10° SSW 16:27:54 70° WNW 16:33:44 10° NNE daylight
16 Oct - 03:10:07 10° NNE 03:12:41 15° ENE 03:15:10 10° ESE visible
16 Oct - 04:51:01 10° WNW 04:54:24 21° WSW 04:57:41 10° SSW visible
16 Oct - 15:32:26 10° S 15:37:45 48° ESE 15:43:21 10° NE daylight
16 Oct - 17:17:10 10° W 17:19:41 13° WNW 17:22:15 10° NW daylight
